Chincoteague Weather Center

Moon Phase Calendar



Online Cameras

 


      

Current Conditions in Onancock
10/16/2021 2:06:52 AM

66°F
Feels Like 64
Clear
Humidity
39%
Pressure
29.91"
Wind
5.8 mph (S)
Dew Point
40°F
UV Index
0/10 (Low)
Visibility
6 mi

Hourly Forecast

Date & Time Sat, Oct 16
2:00 AM
Sat, Oct 16
3:00 AM
Sat, Oct 16
4:00 AM
Sat, Oct 16
5:00 AM
Sat, Oct 16
6:00 AM
Sat, Oct 16
7:00 AM
Sat, Oct 16
8:00 AM
Sat, Oct 16
9:00 AM
Sat, Oct 16
10:00 AM
Sat, Oct 16
11:00 AM
Sat, Oct 16
12:00 PM
Sat, Oct 16
1:00 PM
Sat, Oct 16
2:00 PM
Sat, Oct 16
3:00 PM
Sat, Oct 16
4:00 PM
Sat, Oct 16
5:00 PM
Sat, Oct 16
6:00 PM
Sat, Oct 16
7:00 PM
Sat, Oct 16
8:00 PM
Sat, Oct 16
9:00 PM
Sat, Oct 16
10:00 PM
Sat, Oct 16
11:00 PM
Sun, Oct 17
12:00 AM
Sun, Oct 17
1:00 AM
Sun, Oct 17
2:00 AM
Sun, Oct 17
3:00 AM
Sun, Oct 17
4:00 AM
Sun, Oct 17
5:00 AM
Sun, Oct 17
6:00 AM
Sun, Oct 17
7:00 AM
Sun, Oct 17
8:00 AM
Sun, Oct 17
9:00 AM
Sun, Oct 17
10:00 AM
Sun, Oct 17
11:00 AM
Sun, Oct 17
12:00 PM
Sun, Oct 17
1:00 PM
Sun, Oct 17
2:00 PM
Sun, Oct 17
3:00 PM
Sun, Oct 17
4:00 PM
Sun, Oct 17
5:00 PM
Sun, Oct 17
6:00 PM
Sun, Oct 17
7:00 PM
Sun, Oct 17
8:00 PM
Sun, Oct 17
9:00 PM
Sun, Oct 17
10:00 PM
Sun, Oct 17
11:00 PM
Mon, Oct 18
12:00 AM
Mon, Oct 18
1:00 AM
Condition
Clear

Clear

Clear

Clear

Clear

Clear

Clear

Clear

Clear

Clear

Clear

Clear

Clear

Clear

Clear

Rain

Rain

Rain

Rain

Rain

Clouds

Clouds

Clouds

Clouds

Clouds

Clear

Clear

Clear

Clear

Clear

Clear

Clear

Clear

Clear

Clear

Clear

Clear

Clear

Clear

Clear

Clear

Clear

Clear

Clear

Clear

Clear

Clear

Clear
Temperature 66°F66°F67°F68°F68°F69°F69°F70°F71°F72°F73°F75°F75°F76°F77°F72°F65°F64°F61°F61°F63°F63°F62°F61°F61°F60°F59°F58°F57°F57°F57°F58°F58°F59°F60°F62°F63°F64°F65°F65°F65°F64°F64°F63°F63°F62°F61°F60°F
Feels Like 64°F65°F66°F67°F68°F69°F69°F71°F72°F73°F74°F75°F76°F77°F77°F72°F65°F64°F61°F61°F63°F62°F61°F60°F60°F59°F58°F57°F56°F56°F56°F56°F56°F57°F59°F60°F61°F62°F63°F63°F63°F62°F62°F62°F61°F60°F59°F58°F
Cloudiness 1%1%2%3%3%3%3%2%2%2%2%1%1%0%4%14%32%45%55%100%80%75%56%45%38%0%0%0%0%0%0%0%0%0%1%1%2%6%6%8%8%8%7%4%3%2%2%2%
Visibility 6 mi6 mi6 mi6 mi6 mi6 mi6 mi6 mi6 mi6 mi6 mi6 mi6 mi6 mi6 mi6 mi6 mi6 mi5 mi6 mi6 mi6 mi6 mi6 mi6 mi6 mi6 mi6 mi6 mi6 mi6 mi6 mi6 mi6 mi6 mi6 mi6 mi6 mi6 mi6 mi6 mi6 mi6 mi6 mi6 mi6 mi6 mi6 mi
Precipitation 0%0%0%0%0%0%0%0%0%0%0%0%0%0%12%37%85%99%100%90%88%79%79%79%79%0%0%0%0%0%0%0%0%0%0%0%0%0%0%0%0%0%0%0%0%0%0%0%
Humidity 39%49%58%68%77%85%85%81%77%74%72%71%70%69%68%79%84%87%85%80%72%68%67%67%66%66%66%66%66%66%64%62%60%57%54%49%47%44%42%40%40%40%42%44%45%49%53%56%
Dew Point 40°F47°F52°F57°F61°F64°F64°F64°F63°F63°F64°F64°F65°F65°F65°F65°F60°F60°F57°F55°F54°F53°F51°F50°F49°F49°F48°F47°F46°F46°F45°F45°F44°F44°F43°F42°F42°F42°F41°F41°F40°F40°F40°F41°F41°F42°F43°F44°F
Pressure 29.91"29.91"29.88"29.88"29.85"29.85"29.85"29.85"29.83"29.8"29.8"29.77"29.71"29.71"29.71"29.71"29.77"29.83"29.88"29.85"29.88"29.88"29.88"29.91"29.91"29.91"29.91"29.94"29.94"29.94"29.97"29.97"29.97"29.97"29.97"29.94"29.94"29.91"29.91"29.91"29.94"29.94"29.97"30"30"30"30"30"
Wind Speed 12.8 mph13.3 mph14.1 mph15.2 mph15.9 mph15.9 mph16.2 mph17 mph17.7 mph17.8 mph17.5 mph17.1 mph16.6 mph15.4 mph14.6 mph14.3 mph27.8 mph28.4 mph25.8 mph20 mph20.5 mph24.1 mph23.9 mph23.2 mph22.9 mph22.7 mph23.2 mph23.4 mph22.3 mph21.4 mph21 mph21.3 mph21 mph20.6 mph20.9 mph21.8 mph21.6 mph20.1 mph21 mph20.7 mph21.3 mph21.5 mph22 mph21.4 mph19.7 mph18.1 mph17 mph17.1 mph
Wind
Direction
190°
S
192°
SSW
193°
SSW
192°
SSW
194°
SSW
197°
SSW
196°
SSW
196°
SSW
197°
SSW
196°
SSW
192°
SSW
187°
S
186°
S
185°
S
182°
S
308°
NW
331°
NNW
341°
NNW
333°
NNW
342°
NNW
328°
NNW
324°
NW
324°
NW
324°
NW
322°
NW
318°
NW
315°
NW
315°
NW
315°
NW
315°
NW
314°
NW
310°
NW
305°
NW
306°
NW
307°
NW
309°
NW
311°
NW
312°
NW
309°
NW
307°
NW
308°
NW
312°
NW
316°
NW
318°
NW
317°
NW
310°
NW
303°
WNW
299°
WNW

Daily Forecast

Date High Low Precip. Humidity
Today
Oct 16

Rain
77 °F
61 °F
100%
72%
Sunday
Oct 17

Clear
65 °F
57 °F
79%
54%
Monday
Oct 18

Clear
68 °F
58 °F
0%
53%
Tuesday
Oct 19

Clear
71 °F
60 °F
0%
56%
Wednesday
Oct 20

Clear
71 °F
64 °F
0%
61%
Thursday
Oct 21

Clear
72 °F
65 °F
0%
58%
Friday
Oct 22

Rain
72 °F
67 °F
64%
75%
Saturday
Oct 23

Clouds
64 °F
60 °F
27%
64%
Sunday
Oct 24

Rain
57 °F
51 °F
73%
59%
Monday
Oct 25

Clouds
59 °F
50 °F
0%
59%
Tuesday
Oct 26

Clear
61 °F
55 °F
0%
64%
Wednesday
Oct 27

Clouds
61 °F
55 °F
0%
62%
Thursday
Oct 28

Rain
64 °F
56 °F
100%
82%
Friday
Oct 29

Rain
62 °F
56 °F
100%
90%
Saturday
Oct 30

Rain
64 °F
56 °F
100%
83%
Sunday
Oct 31

Clear
64 °F
59 °F
0%
65%

Temperature 8-14 Day Outlook



Precipitation 8-14 Day Outlook




Quick Links
Chincoteague News
Chincoteague Photos
Chincoteague Videos




About Us
Contact Us
Site Map
Search Site
Advertise With Us
   
Chincoteague.USCoast.info
THE CHINCOTEAGUE WEBSITE

Copyright 2021, Coastal Town
Privacy    |    Legal